Time,TemperatureF,DewpointF,PressureIn,WindDirection,WindDirectionDegrees,WindSpeedMPH,WindSpeedGustMPH,Humidity,HourlyPrecipIn,Conditions,Clouds,dailyrainin,SoftwareType,DateUTC
2013-03-09 00:03:00,38.9,36.2,30.18,SSW,204,0.0,1.0,90,0.00,,,0.00,WeatherCatV1.13B119,2013-03-09 08:03:00,
2013-03-09 00:08:00,38.8,36.1,30.18,NW,326,2.0,3.0,90,0.00,,,0.00,WeatherCatV1.13B119,2013-03-09 08:08:00,
2013-03-09 00:13:00,38.7,36.0,30.18,West,266,0.0,1.0,90,0.00,,,0.00,WeatherCatV1.13B119,2013-03-09 08:13:00,
2013-03-09 00:18:00,38.3,35.6,30.18,ESE,108,0.0,1.0,90,0.00,,,0.00,WeatherCatV1.13B119,2013-03-09 08:18:00,
2013-03-09 00:23:00,38.1,35.7,30.18,WNW,297,0.0,2.0,91,0.00,,,0.00,WeatherCatV1.13B119,2013-03-09 08:23:00,
2013-03-09 00:28:00,38.4,36.0,30.18,WSW,255,2.0,3.0,91,0.00,,,0.00,WeatherCatV1.13B119,2013-03-09 08:28:00,
2013-03-09 00:33:00,38.8,36.4,30.18,NW,308,1.0,2.0,91,0.00,,,0.00,WeatherCatV1.13B119,2013-03-09 08:33:00,
2013-03-09 00:38:00,39.0,36.3,30.18,WSW,256,0.0,1.0,90,0.00,,,0.00,WeatherCatV1.13B119,2013-03-09 08:38:00,
2013-03-09 00:43:00,38.9,36.2,30.18,ESE,110,1.0,1.0,90,0.00,,,0.00,WeatherCatV1.13B119,2013-03-09 08:43:00,
2013-03-09 00:48:00,38.5,35.8,30.18,ENE,72,0.0,2.0,90,0.00,,,0.00,WeatherCatV1.13B119,2013-03-09 08:48:00,
2013-03-09 00:53:00,38.2,35.5,30.19,South,177,0.0,1.0,90,0.00,,,0.00,WeatherCatV1.13B119,2013-03-09 08:53:00,
2013-03-09 00:58:00,37.9,35.5,30.19,SE,129,0.0,2.0,91,0.00,,,0.00,WeatherCatV1.13B119,2013-03-09 08:58:00,
2013-03-09 01:03:00,37.7,35.3,30.19,SSE,162,0.0,3.0,91,0.00,,,0.00,WeatherCatV1.13B119,2013-03-09 09:03:00,
2013-03-09 01:08:00,38.0,35.9,30.19,NNW,327,3.0,5.0,92,0.00,,,0.00,WeatherCatV1.13B119,2013-03-09 09:08:00,
2013-03-09 01:13:00,38.2,36.1,30.19,ENE,77,3.0,7.0,92,0.00,,,0.00,WeatherCatV1.13B119,2013-03-09 09:13:00,
2013-03-09 01:18:00,38.1,35.7,30.19,ENE,68,3.0,3.0,91,0.00,,,0.00,WeatherCatV1.13B119,2013-03-09 09:18:00,
2013-03-09 01:23:00,37.9,35.5,30.19,WNW,300,3.0,3.0,91,0.00,,,0.00,WeatherCatV1.13B119,2013-03-09 09:23:00,
2013-03-09 01:28:00,37.9,35.5,30.19,NW,319,0.0,1.0,91,0.00,,,0.00,WeatherCatV1.13B119,2013-03-09 09:28:00,
2013-03-09 01:33:00,37.9,35.8,30.20,NW,326,2.0,3.0,92,0.00,,,0.00,WeatherCatV1.13B119,2013-03-09 09:33:00,
2013-03-09 01:38:00,38.2,36.1,30.20,West,278,0.0,2.0,92,0.00,,,0.00,WeatherCatV1.13B119,2013-03-09 09:38:00,
2013-03-09 01:43:00,38.3,35.9,30.20,West,264,0.0,2.0,91,0.00,,,0.00,WeatherCatV1.13B119,2013-03-09 09:43:00,
2013-03-09 01:48:00,38.2,35.8,30.20,NNW,330,1.0,4.0,91,0.00,,,0.00,WeatherCatV1.13B119,2013-03-09 09:48:00,
2013-03-09 01:53:00,38.2,35.8,30.20,SE,127,0.0,2.0,91,0.00,,,0.00,WeatherCatV1.13B119,2013-03-09 09:53:00,
2013-03-09 01:58:00,37.8,35.1,30.20,East,99,0.0,1.0,90,0.00,,,0.00,WeatherCatV1.13B119,2013-03-09 09:58:00,
2013-03-09 02:03:00,37.3,34.9,30.21,NE,49,0.0,2.0,91,0.00,,,0.00,WeatherCatV1.13B119,2013-03-09 10:03:00,
2013-03-09 02:08:00,37.1,35.0,30.21,NW,305,2.0,3.0,92,0.00,,,0.00,WeatherCatV1.13B119,2013-03-09 10:08:00,
2013-03-09 02:13:00,37.1,35.0,30.21,SSE,160,0.0,2.0,92,0.00,,,0.00,WeatherCatV1.13B119,2013-03-09 10:13:00,
2013-03-09 02:18:00,37.2,35.4,30.21,SW,232,2.0,3.0,93,0.00,,,0.00,WeatherCatV1.13B119,2013-03-09 10:18:00,
2013-03-09 02:23:00,37.5,35.7,30.21,NW,319,0.0,2.0,93,0.00,,,0.00,WeatherCatV1.13B119,2013-03-09 10:23:00,
2013-03-09 02:28:00,37.7,35.6,30.21,SW,221,0.0,2.0,92,0.00,,,0.00,WeatherCatV1.13B119,2013-03-09 10:28:00,
2013-03-09 02:33:00,37.6,35.5,30.21,ESE,104,0.0,2.0,92,0.00,,,0.00,WeatherCatV1.13B119,2013-03-09 10:33:00,
2013-03-09 02:38:00,37.3,34.9,30.21,ENE,69,0.0,2.0,91,0.00,,,0.00,WeatherCatV1.13B119,2013-03-09 10:38:00,
2013-03-09 02:43:00,37.0,34.9,30.21,West,271,0.0,1.0,92,0.00,,,0.00,WeatherCatV1.13B119,2013-03-09 10:43:00,
2013-03-09 02:48:00,37.1,35.3,30.22,SE,127,0.0,2.0,93,0.00,,,0.00,WeatherCatV1.13B119,2013-03-09 10:48:00,
2013-03-09 02:53:00,37.1,35.0,30.22,SE,139,1.0,1.0,92,0.00,,,0.00,WeatherCatV1.13B119,2013-03-09 10:53:00,
2013-03-09 02:58:00,36.9,34.8,30.22,SE,143,0.0,1.0,92,0.00,,,0.00,WeatherCatV1.13B119,2013-03-09 10:58:00,
2013-03-09 03:03:00,36.7,34.6,30.22,NE,43,0.0,2.0,92,0.00,,,0.00,WeatherCatV1.13B119,2013-03-09 11:03:00,
2013-03-09 03:08:00,36.6,34.8,30.22,SSW,201,1.0,2.0,93,0.00,,,0.00,WeatherCatV1.13B119,2013-03-09 11:08:00,
2013-03-09 03:13:00,36.7,34.9,30.22,WNW,289,0.0,3.0,93,0.00,,,0.00,WeatherCatV1.13B119,2013-03-09 11:13:00,
2013-03-09 03:18:00,36.8,35.0,30.22,NNW,336,0.0,0.0,93,0.00,,,0.00,WeatherCatV1.13B119,2013-03-09 11:18:00,
2013-03-09 03:23:00,36.8,35.0,30.22,WNW,287,0.0,2.0,93,0.00,,,0.00,WeatherCatV1.13B119,2013-03-09 11:23:00,
2013-03-09 03:28:00,36.9,35.1,30.22,West,276,0.0,2.0,93,0.00,,,0.00,WeatherCatV1.13B119,2013-03-09 11:28:00,
2013-03-09 03:33:00,36.7,34.6,30.22,West,259,0.0,1.0,92,0.00,,,0.00,WeatherCatV1.13B119,2013-03-09 11:33:00,
2013-03-09 03:38:00,36.6,34.8,30.22,SW,233,0.0,0.0,93,0.00,,,0.00,WeatherCatV1.13B119,2013-03-09 11:38:00,
2013-03-09 03:43:00,36.7,34.9,30.22,SSW,203,0.0,1.0,93,0.00,,,0.00,WeatherCatV1.13B119,2013-03-09 11:43:00,
2013-03-09 03:48:00,36.9,35.1,30.22,NW,309,1.0,2.0,93,0.00,,,0.00,WeatherCatV1.13B119,2013-03-09 11:48:00,
2013-03-09 03:53:00,37.1,35.3,30.22,NNW,336,1.0,2.0,93,0.00,,,0.00,WeatherCatV1.13B119,2013-03-09 11:53:00,
2013-03-09 03:58:00,37.0,34.9,30.22,SSE,147,0.0,1.0,92,0.00,,,0.00,WeatherCatV1.13B119,2013-03-09 11:58:00,
2013-03-09 04:03:00,36.4,34.0,30.22,East,89,3.0,3.0,91,0.00,,,0.00,WeatherCatV1.13B119,2013-03-09 12:03:00,
2013-03-09 04:08:00,35.9,33.8,30.22,SE,136,1.0,1.0,92,0.00,,,0.00,WeatherCatV1.13B119,2013-03-09 12:08:00,
2013-03-09 04:13:00,35.9,34.1,30.23,SSW,211,0.0,2.0,93,0.00,,,0.00,WeatherCatV1.13B119,2013-03-09 12:13:00,
2013-03-09 04:18:00,35.9,34.1,30.23,WSW,254,0.0,1.0,93,0.00,,,0.00,WeatherCatV1.13B119,2013-03-09 12:18:00,
2013-03-09 04:23:00,35.9,34.3,30.24,WNW,289,3.0,4.0,94,0.00,,,0.00,WeatherCatV1.13B119,2013-03-09 12:23:00,
2013-03-09 04:28:00,36.1,34.5,30.24,WNW,283,1.0,1.0,94,0.00,,,0.00,WeatherCatV1.13B119,2013-03-09 12:28:00,
2013-03-09 04:33:00,36.4,34.8,30.24,WNW,290,1.0,2.0,94,0.00,,,0.00,WeatherCatV1.13B119,2013-03-09 12:33:00,
2013-03-09 04:38:00,36.8,35.2,30.25,NW,322,1.0,3.0,94,0.00,,,0.00,WeatherCatV1.13B119,2013-03-09 12:38:00,
2013-03-09 04:43:00,37.1,35.3,30.25,NNW,328,3.0,5.0,93,0.00,,,0.00,WeatherCatV1.13B119,2013-03-09 12:43:00,
2013-03-09 04:48:00,37.3,35.5,30.25,NW,309,0.0,2.0,93,0.00,,,0.00,WeatherCatV1.13B119,2013-03-09 12:48:00,
2013-03-09 04:53:00,37.3,35.5,30.25,NW,314,1.0,4.0,93,0.00,,,0.00,WeatherCatV1.13B119,2013-03-09 12:53:00,
2013-03-09 04:58:00,37.4,35.3,30.25,NW,308,0.0,4.0,92,0.00,,,0.00,WeatherCatV1.13B119,2013-03-09 12:58:00,
2013-03-09 05:03:00,37.5,35.4,30.26,WNW,295,1.0,2.0,92,0.00,,,0.00,WeatherCatV1.13B119,2013-03-09 13:03:00,
2013-03-09 05:08:00,37.6,35.5,30.26,NNW,330,0.0,4.0,92,0.00,,,0.00,WeatherCatV1.13B119,2013-03-09 13:08:00,
2013-03-09 05:13:00,37.7,35.6,30.26,West,274,0.0,1.0,92,0.00,,,0.00,WeatherCatV1.13B119,2013-03-09 13:13:00,
2013-03-09 05:18:00,37.6,35.2,30.26,WNW,302,0.0,2.0,91,0.00,,,0.00,WeatherCatV1.13B119,2013-03-09 13:18:00,
2013-03-09 05:23:00,37.5,35.1,30.26,South,186,0.0,2.0,91,0.00,,,0.00,WeatherCatV1.13B119,2013-03-09 13:23:00,
2013-03-09 05:28:00,37.2,34.8,30.27,ENE,75,1.0,1.0,91,0.00,,,0.00,WeatherCatV1.13B119,2013-03-09 13:28:00,
2013-03-09 05:33:00,36.9,34.8,30.27,West,260,0.0,1.0,92,0.00,,,0.00,WeatherCatV1.13B119,2013-03-09 13:33:00,
2013-03-09 05:38:00,36.8,34.7,30.27,SSW,205,0.0,1.0,92,0.00,,,0.00,WeatherCatV1.13B119,2013-03-09 13:38:00,
2013-03-09 05:43:00,36.7,34.6,30.27,SSE,158,1.0,2.0,92,0.00,,,0.00,WeatherCatV1.13B119,2013-03-09 13:43:00,
2013-03-09 05:48:00,36.8,34.4,30.27,NNW,337,1.0,3.0,91,0.00,,,0.00,WeatherCatV1.13B119,2013-03-09 13:48:00,
2013-03-09 05:53:00,36.9,34.5,30.27,NNW,331,1.0,2.0,91,0.00,,,0.00,WeatherCatV1.13B119,2013-03-09 13:53:00,
2013-03-09 05:58:00,36.9,34.5,30.28,ENE,62,1.0,2.0,91,0.00,,,0.00,WeatherCatV1.13B119,2013-03-09 13:58:00,
2013-03-09 06:03:00,36.6,34.2,30.28,SE,140,0.0,1.0,91,0.00,,,0.00,WeatherCatV1.13B119,2013-03-09 14:03:00,
2013-03-09 06:08:00,36.5,34.4,30.28,West,259,1.0,2.0,92,0.00,,,0.00,WeatherCatV1.13B119,2013-03-09 14:08:00,
2013-03-09 06:13:00,36.3,34.2,30.28,ESE,110,0.0,3.0,92,0.00,,,0.00,WeatherCatV1.13B119,2013-03-09 14:13:00,
2013-03-09 06:18:00,36.1,34.0,30.28,WSW,238,1.0,2.0,92,0.00,,,0.00,WeatherCatV1.13B119,2013-03-09 14:18:00,
2013-03-09 06:23:00,35.8,33.7,30.29,WNW,303,3.0,3.0,92,0.00,,,0.00,WeatherCatV1.13B119,2013-03-09 14:23:00,
2013-03-09 06:28:00,35.7,33.9,30.29,NW,323,0.0,3.0,93,0.00,,,0.00,WeatherCatV1.13B119,2013-03-09 14:28:00,
2013-03-09 06:33:00,36.1,34.3,30.29,NNW,328,0.0,3.0,93,0.00,,,0.00,WeatherCatV1.13B119,2013-03-09 14:33:00,
2013-03-09 06:38:00,36.3,34.2,30.29,WNW,290,0.0,1.0,92,0.00,,,0.00,WeatherCatV1.13B119,2013-03-09 14:38:00,
2013-03-09 06:43:00,36.4,34.3,30.30,WNW,284,0.0,2.0,92,0.00,,,0.00,WeatherCatV1.13B119,2013-03-09 14:43:00,
2013-03-09 06:48:00,36.4,34.0,30.30,NE,53,0.0,2.0,91,0.00,,,0.00,WeatherCatV1.13B119,2013-03-09 14:48:00,
2013-03-09 06:53:00,36.5,34.1,30.30,North,356,2.0,3.0,91,0.00,,,0.00,WeatherCatV1.13B119,2013-03-09 14:53:00,
2013-03-09 06:58:00,36.6,34.5,30.30,WNW,295,0.0,3.0,92,0.00,,,0.00,WeatherCatV1.13B119,2013-03-09 14:58:00,
2013-03-09 07:03:00,36.8,34.7,30.30,North,5,2.0,3.0,92,0.00,,,0.00,WeatherCatV1.13B119,2013-03-09 15:03:00,
2013-03-09 07:08:00,36.9,34.8,30.30,SE,139,1.0,3.0,92,0.00,,,0.00,WeatherCatV1.13B119,2013-03-09 15:08:00,
2013-03-09 07:13:00,37.2,35.1,30.30,WNW,283,1.0,3.0,92,0.00,,,0.00,WeatherCatV1.13B119,2013-03-09 15:13:00,
2013-03-09 07:18:00,37.3,34.9,30.30,North,5,3.0,3.0,91,0.00,,,0.00,WeatherCatV1.13B119,2013-03-09 15:18:00,
2013-03-09 07:23:00,37.4,35.0,30.30,North,10,2.0,4.0,91,0.00,,,0.00,WeatherCatV1.13B119,2013-03-09 15:23:00,
2013-03-09 07:28:00,37.5,35.4,30.30,NE,35,2.0,4.0,92,0.00,,,0.00,WeatherCatV1.13B119,2013-03-09 15:28:00,
2013-03-09 07:33:00,37.7,35.6,30.30,WSW,245,3.0,4.0,92,0.00,,,0.00,WeatherCatV1.13B119,2013-03-09 15:33:00,
2013-03-09 07:38:00,37.9,35.8,30.30,WNW,300,2.0,4.0,92,0.00,,,0.00,WeatherCatV1.13B119,2013-03-09 15:38:00,
2013-03-09 07:43:00,38.1,35.7,30.30,NW,314,7.0,7.0,91,0.00,,,0.00,WeatherCatV1.13B119,2013-03-09 15:43:00,
2013-03-09 07:48:00,38.4,36.0,30.30,NW,322,2.0,4.0,91,0.00,,,0.00,WeatherCatV1.13B119,2013-03-09 15:48:00,
2013-03-09 07:53:00,38.8,36.1,30.30,NNW,344,1.0,5.0,90,0.00,,,0.00,WeatherCatV1.13B119,2013-03-09 15:53:00,
2013-03-09 07:58:00,38.9,36.2,30.30,ESE,115,2.0,3.0,90,0.00,,,0.00,WeatherCatV1.13B119,2013-03-09 15:58:00,
2013-03-09 08:03:00,39.1,36.4,30.30,NNE,13,2.0,4.0,90,0.00,,,0.00,WeatherCatV1.13B119,2013-03-09 16:03:00,
2013-03-09 08:08:00,39.0,36.3,30.30,WNW,285,1.0,5.0,90,0.00,,,0.00,WeatherCatV1.13B119,2013-03-09 16:08:00,
2013-03-09 08:13:00,39.0,36.3,30.31,North,6,1.0,4.0,90,0.00,,,0.00,WeatherCatV1.13B119,2013-03-09 16:13:00,
2013-03-09 08:18:00,39.1,36.4,30.31,NW,319,2.0,3.0,90,0.00,,,0.00,WeatherCatV1.13B119,2013-03-09 16:18:00,
2013-03-09 08:23:00,39.3,36.6,30.31,ENE,74,2.0,3.0,90,0.00,,,0.00,WeatherCatV1.13B119,2013-03-09 16:23:00,
2013-03-09 08:28:00,39.8,37.1,30.31,WNW,293,3.0,4.0,90,0.00,,,0.00,WeatherCatV1.13B119,2013-03-09 16:28:00,
2013-03-09 08:33:00,39.7,36.7,30.31,ESE,106,3.0,6.0,89,0.00,,,0.00,WeatherCatV1.13B119,2013-03-09 16:33:00,
2013-03-09 08:38:00,39.9,36.9,30.31,WNW,300,2.0,2.0,89,0.00,,,0.00,WeatherCatV1.13B119,2013-03-09 16:38:00,
2013-03-09 08:43:00,40.4,37.1,30.32,WNW,293,1.0,2.0,88,0.00,,,0.00,WeatherCatV1.13B119,2013-03-09 16:43:00,
2013-03-09 08:48:00,41.1,37.5,30.32,NW,323,1.0,2.0,87,0.00,,,0.00,WeatherCatV1.13B119,2013-03-09 16:48:00,
2013-03-09 08:53:00,41.7,37.5,30.33,ENE,74,2.0,3.0,85,0.00,,,0.00,WeatherCatV1.13B119,2013-03-09 16:53:00,
2013-03-09 08:58:00,41.9,37.4,30.33,East,82,2.0,4.0,84,0.00,,,0.00,WeatherCatV1.13B119,2013-03-09 16:58:00,
2013-03-09 09:03:00,42.6,38.1,30.33,ENE,77,3.0,3.0,84,0.00,,,0.00,WeatherCatV1.13B119,2013-03-09 17:03:00,
2013-03-09 09:08:00,42.9,38.4,30.33,ENE,62,0.0,2.0,84,0.00,,,0.00,WeatherCatV1.13B119,2013-03-09 17:08:00,
2013-03-09 09:13:00,43.3,38.2,30.33,ENE,76,1.0,2.0,82,0.00,,,0.00,WeatherCatV1.13B119,2013-03-09 17:13:00,
2013-03-09 09:18:00,43.6,38.5,30.33,ENE,75,0.0,2.0,82,0.00,,,0.00,WeatherCatV1.13B119,2013-03-09 17:18:00,
2013-03-09 09:23:00,44.1,39.3,30.34,SE,127,0.0,0.0,83,0.00,,,0.00,WeatherCatV1.13B119,2013-03-09 17:23:00,
2013-03-09 09:28:00,44.3,37.6,30.34,SW,215,0.0,3.0,77,0.00,,,0.00,WeatherCatV1.13B119,2013-03-09 17:28:00,
2013-03-09 09:33:00,44.3,37.6,30.34,SW,229,4.0,5.0,77,0.00,,,0.00,WeatherCatV1.13B119,2013-03-09 17:33:00,
2013-03-09 09:38:00,44.2,37.5,30.35,WSW,257,1.0,3.0,77,0.00,,,0.00,WeatherCatV1.13B119,2013-03-09 17:38:00,
2013-03-09 09:43:00,44.1,38.0,30.35,SSW,195,0.0,1.0,79,0.00,,,0.00,WeatherCatV1.13B119,2013-03-09 17:43:00,
2013-03-09 09:48:00,44.3,38.2,30.35,SE,127,1.0,2.0,79,0.00,,,0.00,WeatherCatV1.13B119,2013-03-09 17:48:00,
2013-03-09 09:53:00,44.3,38.2,30.35,East,88,0.0,1.0,79,0.00,,,0.00,WeatherCatV1.13B119,2013-03-09 17:53:00,
2013-03-09 09:58:00,44.4,38.6,30.35,East,98,0.0,1.0,80,0.00,,,0.00,WeatherCatV1.13B119,2013-03-09 17:58:00,
2013-03-09 10:03:00,44.7,38.6,30.35,South,188,0.0,0.0,79,0.00,,,0.00,WeatherCatV1.13B119,2013-03-09 18:03:00,
2013-03-09 10:08:00,45.1,38.7,30.35,ESE,123,0.0,3.0,78,0.00,,,0.00,WeatherCatV1.13B119,2013-03-09 18:08:00,
2013-03-09 10:13:00,44.8,38.7,30.35,South,173,2.0,2.0,79,0.00,,,0.00,WeatherCatV1.13B119,2013-03-09 18:13:00,
2013-03-09 10:18:00,44.9,38.8,30.36,SSE,167,0.0,3.0,79,0.00,,,0.00,WeatherCatV1.13B119,2013-03-09 18:18:00,
2013-03-09 10:23:00,45.3,39.2,30.36,SSE,163,0.0,1.0,79,0.00,,,0.00,WeatherCatV1.13B119,2013-03-09 18:23:00,
2013-03-09 10:28:00,45.2,38.8,30.36,South,190,0.0,1.0,78,0.00,,,0.00,WeatherCatV1.13B119,2013-03-09 18:28:00,
2013-03-09 10:33:00,45.1,39.3,30.36,SW,216,0.0,2.0,80,0.00,,,0.00,WeatherCatV1.13B119,2013-03-09 18:33:00,
2013-03-09 10:38:00,44.7,38.9,30.36,SW,224,2.0,4.0,80,0.00,,,0.00,WeatherCatV1.13B119,2013-03-09 18:38:00,
2013-03-09 10:43:00,44.5,39.4,30.36,WSW,245,2.0,3.0,82,0.00,,,0.00,WeatherCatV1.13B119,2013-03-09 18:43:00,
2013-03-09 10:48:00,44.5,39.4,30.36,SSW,205,1.0,3.0,82,0.00,,,0.00,WeatherCatV1.13B119,2013-03-09 18:48:00,
2013-03-09 10:53:00,44.8,39.0,30.36,SW,215,0.0,5.0,80,0.00,,,0.00,WeatherCatV1.13B119,2013-03-09 18:53:00,
2013-03-09 10:58:00,44.7,39.2,30.36,South,176,0.0,5.0,81,0.00,,,0.00,WeatherCatV1.13B119,2013-03-09 18:58:00,
2013-03-09 11:03:00,44.9,39.7,30.35,SE,146,5.0,7.0,82,0.00,,,0.00,WeatherCatV1.13B119,2013-03-09 19:03:00,
2013-03-09 11:08:00,44.9,39.7,30.35,SE,132,2.0,7.0,82,0.00,,,0.00,WeatherCatV1.13B119,2013-03-09 19:08:00,
2013-03-09 11:13:00,45.0,39.8,30.36,SSE,148,4.0,7.0,82,0.00,,,0.00,WeatherCatV1.13B119,2013-03-09 19:13:00,
2013-03-09 11:18:00,45.1,40.2,30.36,SW,222,2.0,6.0,83,0.00,,,0.00,WeatherCatV1.13B119,2013-03-09 19:18:00,
2013-03-09 11:23:00,45.4,40.9,30.36,South,179,3.0,5.0,84,0.00,,,0.00,WeatherCatV1.13B119,2013-03-09 19:23:00,
2013-03-09 11:28:00,45.7,41.8,30.36,South,179,3.0,4.0,86,0.00,,,0.00,WeatherCatV1.13B119,2013-03-09 19:28:00,
2013-03-09 11:33:00,45.5,41.3,30.36,South,186,2.0,7.0,85,0.00,,,0.00,WeatherCatV1.13B119,2013-03-09 19:33:00,
2013-03-09 11:38:00,45.7,41.5,30.36,SW,236,2.0,6.0,85,0.00,,,0.00,WeatherCatV1.13B119,2013-03-09 19:38:00,
2013-03-09 11:43:00,45.6,41.7,30.36,South,169,3.0,5.0,86,0.00,,,0.00,WeatherCatV1.13B119,2013-03-09 19:43:00,
2013-03-09 11:48:00,45.2,41.0,30.36,South,186,3.0,5.0,85,0.00,,,0.00,WeatherCatV1.13B119,2013-03-09 19:48:00,
2013-03-09 11:53:00,44.9,40.7,30.36,SSW,200,4.0,6.0,85,0.00,,,0.00,WeatherCatV1.13B119,2013-03-09 19:53:00,
2013-03-09 11:58:00,45.0,41.1,30.36,South,177,5.0,6.0,86,0.00,,,0.00,WeatherCatV1.13B119,2013-03-09 19:58:00,
2013-03-09 12:03:00,45.0,41.1,30.36,SSW,200,4.0,7.0,86,0.00,,,0.00,WeatherCatV1.13B119,2013-03-09 20:03:00,
2013-03-09 12:08:00,45.3,41.1,30.36,SW,214,3.0,7.0,85,0.00,,,0.00,WeatherCatV1.13B119,2013-03-09 20:08:00,
2013-03-09 12:13:00,45.1,41.2,30.36,ESE,122,6.0,7.0,86,0.00,,,0.00,WeatherCatV1.13B119,2013-03-09 20:13:00,
2013-03-09 12:18:00,44.8,40.9,30.36,SSE,160,3.0,5.0,86,0.00,,,0.00,WeatherCatV1.13B119,2013-03-09 20:18:00,
2013-03-09 12:23:00,44.5,40.9,30.37,South,172,4.0,5.0,87,0.00,,,0.00,WeatherCatV1.13B119,2013-03-09 20:23:00,
2013-03-09 12:28:00,44.4,40.8,30.37,South,181,3.0,5.0,87,0.00,,,0.00,WeatherCatV1.13B119,2013-03-09 20:28:00,
2013-03-09 12:33:00,44.3,41.0,30.37,South,181,3.0,6.0,88,0.00,,,0.00,WeatherCatV1.13B119,2013-03-09 20:33:00,
2013-03-09 12:38:00,44.3,41.0,30.37,South,184,4.0,6.0,88,0.00,,,0.00,WeatherCatV1.13B119,2013-03-09 20:38:00,
2013-03-09 12:43:00,44.4,41.1,30.37,South,179,4.0,4.0,88,0.00,,,0.00,WeatherCatV1.13B119,2013-03-09 20:43:00,
2013-03-09 12:48:00,44.5,41.2,30.37,SW,228,5.0,5.0,88,0.00,,,0.00,WeatherCatV1.13B119,2013-03-09 20:48:00,
2013-03-09 12:53:00,44.6,41.6,30.38,SSE,167,5.0,5.0,89,0.00,,,0.00,WeatherCatV1.13B119,2013-03-09 20:53:00,
2013-03-09 12:58:00,44.7,41.4,30.38,SSW,193,3.0,4.0,88,0.00,,,0.00,WeatherCatV1.13B119,2013-03-09 20:58:00,
2013-03-09 13:03:00,44.9,41.3,30.38,SSE,155,3.0,5.0,87,0.00,,,0.00,WeatherCatV1.13B119,2013-03-09 21:03:00,
2013-03-09 13:08:00,44.9,41.3,30.38,SW,232,2.0,6.0,87,0.00,,,0.00,WeatherCatV1.13B119,2013-03-09 21:08:00,
2013-03-09 13:13:00,45.1,41.5,30.38,WSW,238,2.0,5.0,87,0.00,,,0.00,WeatherCatV1.13B119,2013-03-09 21:13:00,
2013-03-09 13:18:00,45.2,41.6,30.38,South,190,4.0,5.0,87,0.00,,,0.00,WeatherCatV1.13B119,2013-03-09 21:18:00,
2013-03-09 13:23:00,44.9,41.3,30.38,South,181,3.0,5.0,87,0.00,,,0.00,WeatherCatV1.13B119,2013-03-09 21:23:00,
2013-03-09 13:28:00,45.0,41.7,30.38,South,184,4.0,6.0,88,0.00,,,0.00,WeatherCatV1.13B119,2013-03-09 21:28:00,
2013-03-09 13:33:00,44.8,41.2,30.38,South,184,2.0,7.0,87,0.00,,,0.00,WeatherCatV1.13B119,2013-03-09 21:33:00,
2013-03-09 13:38:00,44.9,41.3,30.38,SSE,160,2.0,5.0,87,0.00,,,0.00,WeatherCatV1.13B119,2013-03-09 21:38:00,
2013-03-09 13:43:00,45.1,41.8,30.37,WSW,256,2.0,4.0,88,0.00,,,0.00,WeatherCatV1.13B119,2013-03-09 21:43:00,
2013-03-09 13:48:00,45.9,42.0,30.37,South,191,4.0,5.0,86,0.00,,,0.00,WeatherCatV1.13B119,2013-03-09 21:48:00,
2013-03-09 13:53:00,46.3,42.6,30.37,SW,235,4.0,4.0,87,0.00,,,0.00,WeatherCatV1.13B119,2013-03-09 21:53:00,
2013-03-09 13:58:00,46.5,42.2,30.37,SSE,149,5.0,5.0,85,0.00,,,0.00,WeatherCatV1.13B119,2013-03-09 21:58:00,
2013-03-09 14:03:00,46.6,42.6,30.37,South,179,3.0,4.0,86,0.00,,,0.00,WeatherCatV1.13B119,2013-03-09 22:03:00,
2013-03-09 14:08:00,46.5,41.9,30.37,SW,218,2.0,4.0,84,0.00,,,0.00,WeatherCatV1.13B119,2013-03-09 22:08:00,
2013-03-09 14:13:00,46.6,42.0,30.37,SSW,198,3.0,5.0,84,0.00,,,0.00,WeatherCatV1.13B119,2013-03-09 22:13:00,
2013-03-09 14:18:00,46.6,42.3,30.37,SSE,162,5.0,6.0,85,0.00,,,0.00,WeatherCatV1.13B119,2013-03-09 22:18:00,
2013-03-09 14:23:00,46.6,42.3,30.37,SSW,200,2.0,5.0,85,0.00,,,0.00,WeatherCatV1.13B119,2013-03-09 22:23:00,
2013-03-09 14:28:00,46.3,42.0,30.37,WSW,238,6.0,6.0,85,0.00,,,0.00,WeatherCatV1.13B119,2013-03-09 22:28:00,
2013-03-09 14:33:00,45.7,41.5,30.37,WSW,238,6.0,7.0,85,0.00,,,0.00,WeatherCatV1.13B119,2013-03-09 22:33:00,
2013-03-09 14:38:00,44.9,41.0,30.37,SW,228,4.0,6.0,86,0.00,,,0.00,WeatherCatV1.13B119,2013-03-09 22:38:00,
2013-03-09 14:43:00,44.9,41.6,30.37,WSW,250,2.0,5.0,88,0.00,,,0.00,WeatherCatV1.13B119,2013-03-09 22:43:00,
2013-03-09 14:48:00,45.0,41.1,30.37,SW,214,4.0,5.0,86,0.00,,,0.00,WeatherCatV1.13B119,2013-03-09 22:48:00,
2013-03-09 14:53:00,45.1,41.2,30.37,SW,231,4.0,6.0,86,0.00,,,0.00,WeatherCatV1.13B119,2013-03-09 22:53:00,
2013-03-09 14:58:00,45.5,42.2,30.36,SSW,207,2.0,4.0,88,0.00,,,0.00,WeatherCatV1.13B119,2013-03-09 22:58:00,
2013-03-09 15:03:00,45.9,42.0,30.36,WSW,240,4.0,4.0,86,0.00,,,0.00,WeatherCatV1.13B119,2013-03-09 23:03:00,
2013-03-09 15:08:00,45.9,42.0,30.37,WSW,248,3.0,4.0,86,0.00,,,0.00,WeatherCatV1.13B119,2013-03-09 23:08:00,
2013-03-09 15:13:00,45.7,41.8,30.37,SSW,205,3.0,5.0,86,0.00,,,0.00,WeatherCatV1.13B119,2013-03-09 23:13:00,
2013-03-09 15:18:00,45.6,42.0,30.37,SSW,207,3.0,4.0,87,0.00,,,0.00,WeatherCatV1.13B119,2013-03-09 23:18:00,
2013-03-09 15:23:00,45.7,42.1,30.37,SW,233,3.0,4.0,87,0.00,,,0.00,WeatherCatV1.13B119,2013-03-09 23:23:00,
2013-03-09 15:28:00,46.0,42.3,30.37,SSW,212,3.0,4.0,87,0.00,,,0.00,WeatherCatV1.13B119,2013-03-09 23:28:00,
2013-03-09 15:33:00,46.1,42.7,30.38,SSW,192,1.0,4.0,88,0.00,,,0.00,WeatherCatV1.13B119,2013-03-09 23:33:00,
2013-03-09 15:38:00,46.2,42.2,30.38,SW,218,1.0,3.0,86,0.00,,,0.00,WeatherCatV1.13B119,2013-03-09 23:38:00,
2013-03-09 15:43:00,46.4,42.4,30.38,WSW,245,4.0,5.0,86,0.00,,,0.00,WeatherCatV1.13B119,2013-03-09 23:43:00,
2013-03-09 15:48:00,46.0,42.0,30.38,WSW,252,3.0,5.0,86,0.00,,,0.00,WeatherCatV1.13B119,2013-03-09 23:48:00,
2013-03-09 15:53:00,46.1,42.7,30.38,WSW,243,2.0,3.0,88,0.00,,,0.00,WeatherCatV1.13B119,2013-03-09 23:53:00,
2013-03-09 15:58:00,46.4,42.7,30.38,WSW,244,3.0,4.0,87,0.00,,,0.00,WeatherCatV1.13B119,2013-03-09 23:58:00,
2013-03-09 16:03:00,46.5,42.5,30.38,WNW,297,2.0,5.0,86,0.00,,,0.00,WeatherCatV1.13B119,2013-03-10 00:03:00,
2013-03-09 16:08:00,46.8,43.1,30.38,WSW,250,1.0,4.0,87,0.00,,,0.00,WeatherCatV1.13B119,2013-03-10 00:08:00,
2013-03-09 16:13:00,46.7,42.7,30.38,SSW,205,0.0,4.0,86,0.00,,,0.00,WeatherCatV1.13B119,2013-03-10 00:13:00,
2013-03-09 16:18:00,46.4,42.7,30.38,WNW,292,2.0,3.0,87,0.00,,,0.00,WeatherCatV1.13B119,2013-03-10 00:18:00,
2013-03-09 16:23:00,46.0,42.6,30.38,WSW,255,2.0,3.0,88,0.00,,,0.00,WeatherCatV1.13B119,2013-03-10 00:23:00,
2013-03-09 16:28:00,45.8,42.7,30.38,West,271,3.0,3.0,89,0.00,,,0.00,WeatherCatV1.13B119,2013-03-10 00:28:00,
2013-03-09 16:33:00,45.6,42.3,30.38,West,273,0.0,3.0,88,0.00,,,0.00,WeatherCatV1.13B119,2013-03-10 00:33:00,
2013-03-09 16:38:00,45.6,42.3,30.38,SW,224,3.0,3.0,88,0.00,,,0.00,WeatherCatV1.13B119,2013-03-10 00:38:00,
2013-03-09 16:43:00,45.6,42.0,30.38,West,280,3.0,3.0,87,0.00,,,0.00,WeatherCatV1.13B119,2013-03-10 00:43:00,
2013-03-09 16:48:00,45.7,42.4,30.38,SSE,160,2.0,3.0,88,0.00,,,0.00,WeatherCatV1.13B119,2013-03-10 00:48:00,
2013-03-09 16:53:00,46.0,42.0,30.37,SW,229,0.0,1.0,86,0.00,,,0.00,WeatherCatV1.13B119,2013-03-10 00:53:00,
2013-03-09 16:58:00,46.4,41.8,30.37,SSW,204,2.0,3.0,84,0.00,,,0.00,WeatherCatV1.13B119,2013-03-10 00:58:00,
2013-03-09 17:03:00,46.6,41.1,30.37,SSW,210,2.0,5.0,81,0.00,,,0.00,WeatherCatV1.13B119,2013-03-10 01:03:00,
2013-03-09 17:08:00,46.8,41.0,30.37,SSW,198,2.0,2.0,80,0.00,,,0.00,WeatherCatV1.13B119,2013-03-10 01:08:00,
2013-03-09 17:13:00,46.7,40.5,30.37,SW,215,2.0,2.0,79,0.00,,,0.00,WeatherCatV1.13B119,2013-03-10 01:13:00,
2013-03-09 17:18:00,46.5,40.3,30.37,SSE,149,2.0,3.0,79,0.00,,,0.00,WeatherCatV1.13B119,2013-03-10 01:18:00,
2013-03-09 17:23:00,46.3,39.8,30.37,WSW,243,2.0,3.0,78,0.00,,,0.00,WeatherCatV1.13B119,2013-03-10 01:23:00,
2013-03-09 17:28:00,46.1,40.3,30.37,SSE,156,1.0,2.0,80,0.00,,,0.00,WeatherCatV1.13B119,2013-03-10 01:28:00,
2013-03-09 17:33:00,46.0,40.2,30.38,SW,225,0.0,2.0,80,0.00,,,0.00,WeatherCatV1.13B119,2013-03-10 01:33:00,
2013-03-09 17:38:00,45.9,40.4,30.38,WSW,240,2.0,2.0,81,0.00,,,0.00,WeatherCatV1.13B119,2013-03-10 01:38:00,
2013-03-09 17:43:00,45.8,40.6,30.38,SW,232,0.0,2.0,82,0.00,,,0.00,WeatherCatV1.13B119,2013-03-10 01:43:00,
2013-03-09 17:48:00,45.7,40.8,30.39,West,277,0.0,1.0,83,0.00,,,0.00,WeatherCatV1.13B119,2013-03-10 01:48:00,
2013-03-09 17:53:00,45.5,40.6,30.39,West,266,1.0,2.0,83,0.00,,,0.00,WeatherCatV1.13B119,2013-03-10 01:53:00,
2013-03-09 17:58:00,45.4,40.5,30.39,WNW,291,2.0,2.0,83,0.00,,,0.00,WeatherCatV1.13B119,2013-03-10 01:58:00,
2013-03-09 18:03:00,45.4,40.5,30.39,SW,218,0.0,1.0,83,0.00,,,0.00,WeatherCatV1.13B119,2013-03-10 02:03:00,
2013-03-09 18:08:00,45.4,40.5,30.39,SW,218,0.0,0.0,83,0.00,,,0.00,WeatherCatV1.13B119,2013-03-10 02:08:00,
2013-03-09 18:13:00,45.5,40.3,30.39,SW,218,0.0,0.0,82,0.00,,,0.00,WeatherCatV1.13B119,2013-03-10 02:13:00,
2013-03-09 18:18:00,45.5,40.3,30.40,SW,222,0.0,0.0,82,0.00,,,0.00,WeatherCatV1.13B119,2013-03-10 02:18:00,
2013-03-09 18:23:00,45.5,39.7,30.40,SW,221,0.0,0.0,80,0.00,,,0.00,WeatherCatV1.13B119,2013-03-10 02:23:00,
2013-03-09 18:28:00,45.6,39.8,30.40,SW,222,0.0,0.0,80,0.00,,,0.00,WeatherCatV1.13B119,2013-03-10 02:28:00,
2013-03-09 18:33:00,45.7,38.2,30.40,ESE,110,0.0,1.0,75,0.00,,,0.00,WeatherCatV1.13B119,2013-03-10 02:33:00,
2013-03-09 18:38:00,45.9,38.1,30.40,ESE,110,0.0,0.0,74,0.00,,,0.00,WeatherCatV1.13B119,2013-03-10 02:38:00,
2013-03-09 18:43:00,46.0,37.5,30.40,ESE,102,0.0,1.0,72,0.00,,,0.00,WeatherCatV1.13B119,2013-03-10 02:43:00,
2013-03-09 18:48:00,46.1,37.6,30.40,ESE,117,0.0,1.0,72,0.00,,,0.00,WeatherCatV1.13B119,2013-03-10 02:48:00,
2013-03-09 18:53:00,46.1,37.6,30.40,East,86,1.0,2.0,72,0.00,,,0.00,WeatherCatV1.13B119,2013-03-10 02:53:00,
2013-03-09 18:58:00,46.1,37.9,30.40,ENE,77,0.0,1.0,73,0.00,,,0.00,WeatherCatV1.13B119,2013-03-10 02:58:00,
2013-03-09 19:03:00,45.9,38.1,30.40,NNW,330,1.0,1.0,74,0.00,,,0.00,WeatherCatV1.13B119,2013-03-10 03:03:00,
2013-03-09 19:08:00,45.4,37.9,30.40,WNW,287,0.0,0.0,75,0.00,,,0.00,WeatherCatV1.13B119,2013-03-10 03:08:00,
2013-03-09 19:13:00,44.9,38.1,30.40,NNW,335,0.0,1.0,77,0.00,,,0.00,WeatherCatV1.13B119,2013-03-10 03:13:00,
2013-03-09 19:18:00,44.6,38.5,30.40,WNW,302,1.0,1.0,79,0.00,,,0.00,WeatherCatV1.13B119,2013-03-10 03:18:00,
2013-03-09 19:23:00,44.6,38.5,30.41,NNW,328,0.0,0.0,79,0.00,,,0.00,WeatherCatV1.13B119,2013-03-10 03:23:00,
2013-03-09 19:28:00,44.5,38.4,30.41,North,352,0.0,1.0,79,0.00,,,0.00,WeatherCatV1.13B119,2013-03-10 03:28:00,
2013-03-09 19:33:00,44.3,38.5,30.41,West,271,0.0,1.0,80,0.00,,,0.00,WeatherCatV1.13B119,2013-03-10 03:33:00,
2013-03-09 19:38:00,44.3,38.5,30.41,WSW,257,0.0,1.0,80,0.00,,,0.00,WeatherCatV1.13B119,2013-03-10 03:38:00,
2013-03-09 19:43:00,44.4,38.6,30.41,West,277,0.0,0.0,80,0.00,,,0.00,WeatherCatV1.13B119,2013-03-10 03:43:00,
2013-03-09 19:48:00,44.1,38.6,30.41,SE,141,1.0,1.0,81,0.00,,,0.00,WeatherCatV1.13B119,2013-03-10 03:48:00,
2013-03-09 19:53:00,43.7,38.9,30.41,WNW,293,0.0,2.0,83,0.00,,,0.00,WeatherCatV1.13B119,2013-03-10 03:53:00,
2013-03-09 19:58:00,43.3,38.8,30.40,NE,47,0.0,1.0,84,0.00,,,0.00,WeatherCatV1.13B119,2013-03-10 03:58:00,
2013-03-09 20:03:00,43.2,39.0,30.40,ESE,104,1.0,2.0,85,0.00,,,0.00,WeatherCatV1.13B119,2013-03-10 04:03:00,
2013-03-09 20:08:00,43.0,38.8,30.40,SW,227,0.0,1.0,85,0.00,,,0.00,WeatherCatV1.13B119,2013-03-10 04:08:00,
2013-03-09 20:13:00,42.9,38.7,30.40,NE,56,1.0,2.0,85,0.00,,,0.00,WeatherCatV1.13B119,2013-03-10 04:13:00,
2013-03-09 20:18:00,42.9,38.4,30.40,West,266,0.0,2.0,84,0.00,,,0.00,WeatherCatV1.13B119,2013-03-10 04:18:00,
2013-03-09 20:23:00,43.2,38.4,30.40,NNE,23,0.0,3.0,83,0.00,,,0.00,WeatherCatV1.13B119,2013-03-10 04:23:00,
2013-03-09 20:28:00,43.1,38.3,30.40,NW,305,1.0,3.0,83,0.00,,,0.00,WeatherCatV1.13B119,2013-03-10 04:28:00,
2013-03-09 20:33:00,43.0,38.2,30.40,SE,131,1.0,5.0,83,0.00,,,0.00,WeatherCatV1.13B119,2013-03-10 04:33:00,
2013-03-09 20:38:00,42.9,38.1,30.40,SSW,198,0.0,1.0,83,0.00,,,0.00,WeatherCatV1.13B119,2013-03-10 04:38:00,
2013-03-09 20:43:00,42.8,38.0,30.40,East,87,0.0,3.0,83,0.00,,,0.00,WeatherCatV1.13B119,2013-03-10 04:43:00,
2013-03-09 20:48:00,42.8,38.3,30.40,North,5,2.0,4.0,84,0.00,,,0.00,WeatherCatV1.13B119,2013-03-10 04:48:00,
2013-03-09 20:53:00,43.1,38.3,30.41,NW,321,2.0,4.0,83,0.00,,,0.00,WeatherCatV1.13B119,2013-03-10 04:53:00,
2013-03-09 20:58:00,43.6,38.5,30.41,SW,235,1.0,1.0,82,0.00,,,0.00,WeatherCatV1.13B119,2013-03-10 04:58:00,
2013-03-09 21:00:00,43.7,38.6,30.41,WNW,293,1.0,3.0,82,0.00,,,0.00,WeatherCatV1.13B119,2013-03-10 05:00:00,
2013-03-09 21:05:00,43.9,38.8,30.40,WNW,302,0.0,4.0,82,0.00,,,0.00,WeatherCatV1.13B119,2013-03-10 05:05:00,
2013-03-09 21:10:00,43.8,38.7,30.40,NW,311,0.0,3.0,82,0.00,,,0.00,WeatherCatV1.13B119,2013-03-10 05:10:00,
2013-03-09 21:15:00,43.8,39.0,30.40,ENE,77,1.0,3.0,83,0.00,,,0.00,WeatherCatV1.13B119,2013-03-10 05:15:00,
2013-03-09 21:20:00,43.8,39.0,30.40,NW,325,2.0,5.0,83,0.00,,,0.00,WeatherCatV1.13B119,2013-03-10 05:20:00,
2013-03-09 21:25:00,43.7,38.9,30.40,NNE,16,0.0,4.0,83,0.00,,,0.00,WeatherCatV1.13B119,2013-03-10 05:25:00,
2013-03-09 21:30:00,43.7,38.9,30.40,NW,322,2.0,4.0,83,0.00,,,0.00,WeatherCatV1.13B119,2013-03-10 05:30:00,
2013-03-09 21:35:00,43.7,38.9,30.40,NW,322,3.0,4.0,83,0.00,,,0.00,WeatherCatV1.13B119,2013-03-10 05:35:00,
2013-03-09 21:40:00,43.7,38.9,30.40,SSE,164,1.0,2.0,83,0.00,,,0.00,WeatherCatV1.13B119,2013-03-10 05:40:00,
2013-03-09 21:45:00,43.6,39.1,30.40,NW,312,2.0,4.0,84,0.00,,,0.00,WeatherCatV1.13B119,2013-03-10 05:45:00,
2013-03-09 21:50:00,43.5,39.0,30.40,West,271,1.0,5.0,84,0.00,,,0.00,WeatherCatV1.13B119,2013-03-10 05:50:00,
2013-03-09 21:55:00,43.4,38.9,30.41,West,274,1.0,4.0,84,0.00,,,0.00,WeatherCatV1.13B119,2013-03-10 05:55:00,
2013-03-09 22:00:00,43.3,39.1,30.41,NNW,335,5.0,5.0,85,0.00,,,0.00,WeatherCatV1.13B119,2013-03-10 06:00:00,
2013-03-09 22:05:00,43.3,39.1,30.41,NW,325,2.0,2.0,85,0.00,,,0.00,WeatherCatV1.13B119,2013-03-10 06:05:00,
2013-03-09 22:10:00,43.3,39.1,30.41,NW,322,1.0,3.0,85,0.00,,,0.00,WeatherCatV1.13B119,2013-03-10 06:10:00,
2013-03-09 22:15:00,43.4,39.2,30.41,NNW,327,2.0,3.0,85,0.00,,,0.00,WeatherCatV1.13B119,2013-03-10 06:15:00,
2013-03-09 22:20:00,43.4,39.2,30.40,North,350,3.0,3.0,85,0.00,,,0.00,WeatherCatV1.13B119,2013-03-10 06:20:00,
2013-03-09 22:25:00,43.4,39.2,30.40,NE,44,1.0,3.0,85,0.00,,,0.00,WeatherCatV1.13B119,2013-03-10 06:25:00,
2013-03-09 22:30:00,43.4,39.2,30.40,South,186,1.0,2.0,85,0.00,,,0.00,WeatherCatV1.13B119,2013-03-10 06:30:00,
2013-03-09 22:35:00,43.3,39.1,30.41,WNW,284,0.0,3.0,85,0.00,,,0.00,WeatherCatV1.13B119,2013-03-10 06:35:00,
2013-03-09 22:40:00,43.3,39.4,30.40,NW,325,2.0,3.0,86,0.00,,,0.00,WeatherCatV1.13B119,2013-03-10 06:40:00,
2013-03-09 22:45:00,43.3,39.1,30.40,East,99,0.0,1.0,85,0.00,,,0.00,WeatherCatV1.13B119,2013-03-10 06:45:00,
2013-03-09 22:50:00,43.2,39.3,30.40,West,276,2.0,2.0,86,0.00,,,0.00,WeatherCatV1.13B119,2013-03-10 06:50:00,
2013-03-09 22:55:00,43.2,39.3,30.40,NNE,32,0.0,3.0,86,0.00,,,0.00,WeatherCatV1.13B119,2013-03-10 06:55:00,
2013-03-09 23:00:00,43.1,39.2,30.40,NW,325,0.0,2.0,86,0.00,,,0.00,WeatherCatV1.13B119,2013-03-10 07:00:00,
2013-03-09 23:05:00,43.0,39.1,30.40,NE,41,0.0,8.0,86,0.00,,,0.00,WeatherCatV1.13B119,2013-03-10 07:05:00,
2013-03-09 23:10:00,42.9,39.3,30.40,NNW,348,2.0,5.0,87,0.00,,,0.00,WeatherCatV1.13B119,2013-03-10 07:10:00,
2013-03-09 23:15:00,43.1,39.2,30.40,North,352,2.0,4.0,86,0.00,,,0.00,WeatherCatV1.13B119,2013-03-10 07:15:00,
2013-03-09 23:20:00,43.3,39.4,30.40,ESE,102,1.0,2.0,86,0.00,,,0.00,WeatherCatV1.13B119,2013-03-10 07:20:00,
2013-03-09 23:25:00,43.3,39.1,30.41,NW,305,0.0,1.0,85,0.00,,,0.00,WeatherCatV1.13B119,2013-03-10 07:25:00,
2013-03-09 23:30:00,43.2,39.3,30.40,South,184,1.0,2.0,86,0.00,,,0.00,WeatherCatV1.13B119,2013-03-10 07:30:00,
2013-03-09 23:35:00,43.3,39.1,30.40,NNE,27,1.0,3.0,85,0.00,,,0.00,WeatherCatV1.13B119,2013-03-10 07:35:00,
2013-03-09 23:40:00,43.3,39.1,30.41,NNW,335,1.0,3.0,85,0.00,,,0.00,WeatherCatV1.13B119,2013-03-10 07:40:00,
2013-03-09 23:45:00,43.4,39.2,30.40,South,171,0.0,2.0,85,0.00,,,0.00,WeatherCatV1.13B119,2013-03-10 07:45:00,
2013-03-09 23:50:00,43.3,39.1,30.40,East,99,1.0,3.0,85,0.00,,,0.00,WeatherCatV1.13B119,2013-03-10 07:50:00,
2013-03-09 23:55:00,43.3,39.1,30.41,North,4,0.0,1.0,85,0.00,,,0.00,WeatherCatV1.13B119,2013-03-10 07:55:00,